MDT,Max TemperatureF,Mean TemperatureF,Min TemperatureF,Max Dew PointF,MeanDew PointF,Min DewpointF,Max Humidity, Mean Humidity, Min Humidity, Max Sea Level PressureIn, Mean Sea Level PressureIn, Min Sea Level PressureIn, Max VisibilityMiles, Mean VisibilityMiles, Min VisibilityMiles, Max Wind SpeedMPH, Mean Wind SpeedMPH, Max Gust SpeedMPH,PrecipitationIn, CloudCover, Events, WindDirDegrees
2013-9-1,84,70,57,57,50,46,88,59,30,30.39,30.04,29.87,10,10,7,15,8,24,0.09,3,Rain-Thunderstorm,26
2013-9-2,78,66,55,56,54,49,93,72,44,30.30,30.06,29.99,10,10,10,16,6,23,0.00,2,Thunderstorm,242
2013-9-3,82,68,54,57,52,49,93,64,34,30.37,30.15,29.99,10,10,10,17,6,24,0.01,0,,201
2013-9-4,82,68,55,49,44,37,69,45,21,30.38,30.11,30.03,10,10,10,14,8,20,0.00,0,,200
2013-9-5,82,68,53,42,39,35,59,37,19,30.12,30.09,30.06,10,10,10,16,4,21,0.00,0,,168
2013-9-6,82,66,51,43,38,33,63,36,18,30.11,30.03,29.96,10,10,10,15,6,25,0.00,0,,183
2013-9-7,82,66,51,49,44,40,74,45,25,30.04,29.99,29.93,10,10,10,23,10,28,0.00,0,,184
2013-9-8,81,66,52,48,44,42,71,46,29,29.99,29.91,29.84,10,10,10,15,8,24,0.00,0,,186
2013-9-9,79,66,53,50,46,40,77,53,27,29.89,29.85,29.77,10,10,10,18,11,26,0.00,0,,176
2013-9-10,68,60,54,58,55,51,100,89,59,30.31,30.11,29.86,10,7,2,12,8,17,1.04,7,Rain,167
2013-9-11,66,60,55,59,56,55,100,92,75,30.34,30.21,29.99,10,6,1,20,8,22,1.86,7,Rain,141
2013-9-12,61,58,55,58,56,54,100,95,88,30.36,30.24,30.03,10,7,2,21,8,28,0.77,8,Rain,140
2013-9-13,59,55,51,56,54,52,100,95,87,30.31,30.15,29.95,10,7,0,21,13,26,0.37,7,Fog-Rain,184
2013-9-14,66,58,51,55,53,49,100,92,65,30.22,30.09,29.86,10,5,0,21,9,24,0.80,7,Fog-Rain,190
2013-9-15,70,60,50,53,51,48,100,87,54,30.31,30.10,29.94,10,8,1,18,8,25,1.30,7,Rain,5
2013-9-16,64,58,52,55,53,50,97,87,67,30.40,30.18,30.04,10,10,4,20,6,,0.09,5,Rain,185
2013-9-17,73,63,53,56,54,50,100,86,44,30.30,30.11,29.84,10,7,0,20,11,26,0.01,4,Fog,191
2013-9-18,75,65,55,57,54,50,96,75,46,29.90,29.83,29.78,10,10,10,22,15,31,0.01,0,,196
2013-9-19,75,63,53,56,50,38,94,70,28,30.23,29.91,29.78,10,9,2,18,10,25,0.53,4,Rain,109
2013-9-20,63,56,51,54,52,51,100,88,70,30.29,30.12,29.96,10,9,5,17,11,22,0.00,7,,103
2013-9-21,75,60,48,52,50,43,100,81,33,30.27,30.06,29.79,10,7,0,18,9,25,0.00,4,Fog,199
2013-9-22,73,59,46,49,45,38,93,68,30,29.94,29.73,29.57,10,8,2,29,14,48,0.44,2,Rain,204
2013-9-23,66,54,42,42,35,30,83,50,29,29.98,29.77,29.60,10,10,10,18,12,28,0.00,0,,319
2013-9-24,70,56,42,44,39,30,71,56,38,30.11,30.01,29.92,10,10,10,21,10,26,0.00,0,,192
2013-9-25,73,60,46,44,38,33,71,47,23,29.88,29.73,29.59,10,10,10,30,15,36,0.00,0,,206
2013-9-26,75,65,57,40,35,30,51,34,21,29.69,29.63,29.57,10,10,10,30,21,40,0.00,0,,221
2013-9-27,72,57,44,44,38,20,66,49,35,29.86,29.69,29.60,10,10,10,32,16,48,0.00,2,,223
2013-9-28,62,47,33,26,21,16,64,39,20,30.15,30.07,29.87,10,10,10,18,9,23,0.00,0,,186
2013-9-29,75,56,37,25,19,11,53,27,9,30.12,29.99,29.86,10,10,10,17,6,26,0.00,0,,312
2013-9-30,78,61,45,31,24,12,37,25,14,29.87,29.78,29.70,10,10,10,14,7,18,0.00,0,,56